Location: Recife
(8.0585°S, 34.8848°W)
Time: 13:18:26
(UTC-03:00)

Vanguard 1 Rocket - Pass Details

Date: 17 April 2026
Orbit: 655 x 4212 km, 34.3° (Epoch: 12 May)

Event Time Altitude Azimuth Distance (km) Brightness Sun altitude
Rises 04:12:13 0° 326° (NW) 5,826 11.3 -17.8°
Reaches altitude 10° 04:17:54 10° 339° (NNW) 4,110 10.6 -16.4°
Maximum altitude 04:24:51 21° 24° (NNE) 2,484 10.0 -14.7°
Drops below altitude 10° 04:29:35 10° 73° (ENE) 2,678 11.2 -13.6°
Sets 04:32:19 0° 90° (E) 3,349 12.2 -12.9°
